Regional Weather Roundup
Issued by NWS Northern Indiana

Home | Current Version | Previous Version | Graphics & Text | Print | Product List | Glossary On
Versions: 1 2 3 4 5 6 7 8 9 10 11 12 13 14 15 16 17 18 19 20 21 22 23 24 25 26 27 28 29 30 31 32 33 34 35 36 37 38 39 40 41 42 43 44 45 46 47 48 49 50
000
ASUS43 KIWX 311400
RWRIWX

KIWX WEATHER ROUNDUP
NATIONAL WEATHER SERVICE NORTHERN INDIANA
900 AM EST SAT JAN 31 2015

NOTE: "FAIR" INDICATES FEW OR NO CLOUDS BELOW 12,000 FEET WITH NO
SIGNIFICANT WEATHER AND/OR OBSTRUCTIONS TO VISIBILITY.

* THESE STATIONS ARE NOT UNDER NWS QUALITY CONTROL. THEY ALSO MAY NOT
  REPORT WEATHER SUCH AS PRECIPITATION OR FOG.

INZ001>027-311500-
NORTHERN INDIANA

CITY           SKY/WX    TMP DP  RH WIND       PRES   REMARKS
GARY*          PTCLDY    27  19  74 S9        30.27F WCI  17
SOUTH BEND     CLEAR     24  17  74 SW8       30.27F WCI  15
GOSHEN         CLEAR     22  17  81 SW9       30.27F WCI  12
ANGOLA*        SUNNY     18  14  86 S5        30.26F WCI  11
FORT WAYNE     MOSUNNY   22  18  85 S7        30.31S WCI  13
PERU/GRISSOM   PTCLDY    24  18  80 S8        30.30S WCI  14

$$
INZ028>050-311500-
CENTRAL INDIANA

CITY           SKY/WX    TMP DP  RH WIND       PRES   REMARKS
LAFAYETTE      PTCLDY    24  18  77 SW3       30.32S
KOKOMO*        MOSUNNY   25  18  74 S7        30.32S WCI  17
MUNCIE*        PTSUNNY   24  17  74 SW8       30.32S WCI  15
INDIANAPOLIS   CLOUDY    21  17  84 S7        30.33F WCI  12

$$
MIZ043>046-050>051-056>058-064>065-071>073-077>080-311500-
SOUTHWEST LOWER MICHIGAN

CITY           SKY/WX    TMP DP  RH WIND       PRES   REMARKS
BATTLE CREEK   PTCLDY    18  12  77 S8        30.24F WCI   8
BENTON HARBOR  CLEAR     22  18  85 S7        30.25F WCI  13
COLDWATER*     CLEAR     20  15  81 SW9       30.25F WCI  10
HILLSDALE*     MOSUNNY   18  15  89 S3        30.24F
HOLLAND        CLEAR     24  19  81 S12       30.22F WCI  13
GRAND RAPIDS   MOCLDY    21  16  81 S12       30.22S WCI   9
KALAMAZOO      CLEAR     17  13  84 S8        30.25F WCI   7
STURGIS*       CLEAR     19  18  93 CALM      30.25F
THREE RIVERS*  FAIR      19  16  87 S6        30.26F WCI  11

$$
OHZ001>008-015>018-024>025-311500-
NORTHWEST OHIO

CITY           SKY/WX    TMP DP  RH WIND       PRES   REMARKS
DEFIANCE       SUNNY     20  15  81 S6        30.32S WCI  12
FINDLAY        PTSUNNY   19  13  77 S10       30.32R WCI   7
TOLEDO EXPRESS MOSUNNY   18  13  80 SW6       30.31S WCI  10
TOLEDO METCALF PTSUNNY   20  14  77 SW9       30.32S WCI   9
LIMA           MOSUNNY   20  13  74 S8        30.32S WCI  10

$$
AND FOR LAKE MICHIGAN COASTAL AND OPEN LAKE BUOY OBSERVATIONS

STATION/POSITION TEMP    WIND        PRES    VSBY  WAVE
                 AIR SEA DIR/SP/G                  HT/PER
                 (F)     (DEG/KT/KT) (MB)    (MI)  (FT/S)
CALUMET HARBOR    26     210/  6/ 12   N/A
MICHIGAN CITY     24     160/ 10/ 13   N/A
SAINT JOSEPH      22     150/  6/ 13 1024.4F

$$
&&


USA.gov is the U.S. government's official web portal to all federal, state and local government web resources and services.